This is the latest recevied weather packets stored in our database for station/object LU1MQF-13. If no packets are shown the sender has not sent any weather packets the latest 10 day(s).
| Time | Temp. | Humidity | Pressure | Rain* | Wind** | Luminosity | Snow |
|---|---|---|---|---|---|---|---|
| 1778195534 | 18.89° C | 20% | 936.5 hPa | - | - | - | - |
| 1778194634 | 18.89° C | 20% | 936.1 hPa | - | - | - | - |
| 1778193734 | 18.89° C | 20% | 936.1 hPa | - | - | - | - |
| 1778192834 | 18.89° C | 21% | 936 hPa | - | - | - | - |
| 1778191934 | 18.89° C | 20% | 935.9 hPa | - | - | - | - |
| 1778191034 | 18.89° C | 20% | 935.6 hPa | - | - | - | - |
| 1778190134 | 18.89° C | 20% | 935.4 hPa | - | - | - | - |
| 1778189234 | 20° C | 20% | 935.1 hPa | - | - | - | - |
| 1778188334 | 20° C | 20% | 935.2 hPa | - | - | - | - |
| 1778187434 | 20° C | 20% | 935.2 hPa | - | - | - | - |
| 1778186533 | 20° C | 20% | 935 hPa | - | - | - | - |
| 1778185634 | 20° C | 20% | 934.6 hPa | - | - | - | - |
| 1778184733 | 21.11° C | 19% | 934.4 hPa | - | - | - | - |
| 1778183834 | 21.11° C | 26% | 934.5 hPa | - | - | - | - |
| 1778182933 | 20° C | 18% | 934.5 hPa | - | - | - | - |
| 1778182033 | 20° C | 18% | 934.5 hPa | - | - | - | - |
| 1778181134 | 20° C | 18% | 934.6 hPa | - | - | - | - |
| 1778180233 | 20° C | 18% | 934.7 hPa | - | - | - | - |
| 1778179334 | 20° C | 18% | 935 hPa | - | - | - | - |
| 1778178433 | 20° C | 18% | 935.2 hPa | - | - | - | - |
| 1778177533 | 20° C | 18% | 935.3 hPa | - | - | - | - |
| 1778176633 | 20° C | 18% | 935.3 hPa | - | - | - | - |
| 1778175734 | 20° C | 20% | 935.3 hPa | - | - | - | - |
| 1778174833 | 20° C | 19% | 935.8 hPa | - | - | - | - |
| 1778173933 | 20° C | 18% | 936 hPa | - | - | - | - |
* Rain since midnight (hover to see other rain measurements)
** Current wind speed in m/s (hover to see current wind gust speed)